[Date Prev][Date Next][Thread Prev][Thread Next] - [Date Index][Thread Index][Author Index]
2 Line ISS Keps 2-27
- Subject: [sarex] 2 Line ISS Keps 2-27
- From: "Dave Larsen Ph.D." <doc@xxxxxxxxxxx>
- Date: Thu, 27 Feb 2003 02:26:23 -0800
ISS
1 25544U 98067A 03058.06307870 .00013478 00000-0 17697-3 0 7317
2 25544 51.6351 213.3480 0011806 251.2327 282.1908 15.58786497243821
----
Via the sarex mailing list at AMSAT.ORG courtesy of AMSAT-NA.
To unsubscribe, send "unsubscribe sarex" to Majordomo@amsat.org
AMSAT Home